This is the latest recevied weather packets stored in our database for station/object WD9U. If no packets are shown the sender has not sent any weather packets the latest 10 day(s).
| Time | Temp. | Humidity | Pressure | Rain* | Wind** | Luminosity | Snow |
|---|---|---|---|---|---|---|---|
| 1777861513 | 13.33° C | 37% | 1002.4 hPa | 0 mm | - | 0 W/m² | - |
| 1777861153 | 13.89° C | 34% | 1002.5 hPa | 0 mm | - | 0 W/m² | - |
| 1777860793 | 13.89° C | 33% | 1002.6 hPa | 0 mm | - | 0 W/m² | - |
| 1777860432 | 14.44° C | 33% | 1002.5 hPa | 0 mm | - | 0 W/m² | - |
| 1777860314 | 14.44° C | 33% | 1002.5 hPa | 0 mm | - | 0 W/m² | - |
| 1777860072 | 14.44° C | 33% | 1002.6 hPa | 0 mm | - | 0 W/m² | - |
| 1777859712 | 15° C | 32% | 1002.7 hPa | 0 mm | - | 0 W/m² | - |
| 1777859352 | 15° C | 32% | 1002.8 hPa | 0 mm | - | 0 W/m² | - |
| 1777859114 | 15° C | 31% | 1002.8 hPa | 0 mm | - | 0 W/m² | - |
| 1777858992 | 15.56° C | 31% | 1002.8 hPa | 0 mm | - | 0 W/m² | - |
| 1777858632 | 15.56° C | 29% | 1002.7 hPa | 0 mm | - | 0 W/m² | - |
| 1777858272 | 16.11° C | 29% | 1002.9 hPa | 0 mm | - | 0 W/m² | - |
| 1777857912 | 16.11° C | 28% | 1002.9 hPa | 0 mm | - | 1 W/m² | - |
| 1777857552 | 16.67° C | 27% | 1003 hPa | 0 mm | - | 2 W/m² | - |
| 1777857192 | 16.67° C | 27% | 1003 hPa | 0 mm | - | 4 W/m² | - |
| 1777856831 | 16.67° C | 27% | 1003 hPa | 0 mm | - | 6 W/m² | - |
| 1777856715 | 16.67° C | 27% | 1003 hPa | 0 mm | - | 7 W/m² | - |
| 1777856471 | 16.67° C | 27% | 1003.1 hPa | 0 mm | - | 10 W/m² | - |
| 1777856112 | 17.22° C | 27% | 1003.1 hPa | 0 mm | - | 18 W/m² | - |
| 1777855752 | 17.22° C | 28% | 1003.1 hPa | 0 mm | - | 21 W/m² | - |
| 1777855514 | 17.22° C | 27% | 1003.1 hPa | 0 mm | - | 20 W/m² | - |
| 1777855391 | 17.22° C | 27% | 1003 hPa | 0 mm | - | 20 W/m² | - |
| 1777855032 | 17.22° C | 27% | 1003.2 hPa | 0 mm | - | 22 W/m² | - |
| 1777854671 | 17.78° C | 27% | 1003.2 hPa | 0 mm | - | 28 W/m² | - |
| 1777854311 | 18.33° C | 27% | 1003.1 hPa | 0 mm | - | 33 W/m² | - |
* Rain latest hour (hover to see other rain measurements)
** Current wind speed in m/s (hover to see current wind gust speed)